Change the Weather History Date:

Tuesday, September 24, 2013

  Actual Average Record
Temperature  
Mean Temperature 49 °F 54 °F  
Max Temperature 52 °F 64 °F 86 °F (1920)
Min Temperature 46 °F 43 °F 29 °F (1953)
Degree Days  
Heating Degree Days 16 11  
Month to date heating degree days 148 172  
Since 1 July heating degree days 193 251  
Cooling Degree Days 0 0  
Month to date cooling degree days 28 15  
Year to date cooling degree days 380 266  
Moisture  
Dew Point 42 °F    
Average Humidity 79    
Maximum Humidity 86    
Minimum Humidity 71    
Precipitation  
Precipitation 0.04 in 0.14 in 3.03 in (1981)
Month to date precipitation 4.68 2.87  
Year to date precipitation 30.17 29.80  
Sea Level Pressure  
Sea Level Pressure 29.81 in    
Wind  
Wind Speed 9 mph (NW)    
Max Wind Speed 15 mph    
Max Gust Speed 21 mph    
Visibility 10 miles    
Events Rain    
T = Trace of Precipitation, MM = Missing Value Source: NWS Daily Summary

Daily Weather History Graph

Daily Weather History Graph

Search for Another Location

Airport or City:

Trip Planner

Search our weather history database for the weather conditions in past years. The results will help you decide how hot, cold, wet, or windy it might be!

Date:

Astronomy

Sep. 24, 2013 Rise Set
Actual Time 6:24 AM EDT 6:28 PM EDT
Civil Twilight 5:54 AM EDT 6:57 PM EDT
Nautical Twilight 5:20 AM EDT 7:32 PM EDT
Astronomical Twilight 4:44 AM EDT 8:07 PM EDT
Moon 9:27 PM EDT (9/24) 11:51 AM EDT (9/24)
Length of Visible Light 13h 02m
Length of Day
12h 03m
Waning Gibbous, 73% of the Moon is Illuminated
Sep 24
Waning Gibbous
Sep 26
Last Quarter
Oct 4
New
Oct 11
First Quarter
Oct 18
Full

Hourly Weather History & Observations

Time (EDT) Temp. Windchill Dew Point Humidity Pressure Visibility Wind Dir Wind Speed Gust Speed Precip Events Conditions
12:53 AM 48.9 °F - 39.0 °F 69% 29.85 in 10.0 mi WNW 9.2 mph - N/A   Overcast
1:53 AM 48.9 °F - 39.0 °F 69% 29.83 in 10.0 mi WNW 6.9 mph - N/A   Overcast
2:53 AM 48.9 °F - 39.0 °F 69% 29.82 in 10.0 mi WNW 5.8 mph - N/A   Overcast
3:53 AM 48.9 °F - 39.0 °F 69% 29.82 in 10.0 mi WNW 6.9 mph 19.6 mph N/A   Overcast
4:27 AM 48.2 °F - 39.2 °F 71% 29.80 in 10.0 mi WNW 11.5 mph 17.3 mph N/A   Overcast
4:53 AM 48.9 °F - 39.0 °F 69% 29.81 in 10.0 mi WNW 9.2 mph 18.4 mph N/A   Overcast
5:14 AM 48.2 °F - 39.2 °F 71% 29.79 in 10.0 mi WNW 10.4 mph 17.3 mph N/A   Overcast
5:53 AM 48.9 °F - 39.0 °F 69% 29.81 in 10.0 mi WNW 8.1 mph - N/A   Overcast
6:53 AM 46.0 °F 41.4 °F 41.0 °F 83% 29.81 in 4.0 mi WNW 9.2 mph 18.4 mph 0.03 in Rain Rain
7:00 AM 46.4 °F 41.9 °F 41.0 °F 81% 29.79 in 7.0 mi WNW 9.2 mph 16.1 mph 0.00 in Rain Light Rain
7:53 AM 46.0 °F 42.5 °F 41.0 °F 83% 29.80 in 8.0 mi Variable 6.9 mph - 0.00 in Rain Light Rain
8:40 AM 46.4 °F 42.4 °F 42.8 °F 87% 29.79 in 8.0 mi NW 8.1 mph - 0.01 in Rain Light Rain
8:53 AM 46.0 °F 41.4 °F 42.1 °F 86% 29.82 in 10.0 mi NW 9.2 mph - 0.01 in Rain Light Rain
9:17 AM 46.4 °F 41.5 °F 42.8 °F 87% 29.79 in 10.0 mi NW 10.4 mph - 0.00 in Rain Light Rain
9:53 AM 48.0 °F - 41.0 °F 77% 29.81 in 10.0 mi NW 11.5 mph - 0.00 in   Overcast
10:53 AM 48.0 °F - 41.0 °F 77% 29.81 in 10.0 mi NW 10.4 mph - 0.00 in Rain Light Rain
11:28 AM 48.2 °F - 42.8 °F 82% 29.79 in 10.0 mi NW 9.2 mph - 0.00 in Rain Light Rain
11:53 AM 48.9 °F - 42.1 °F 77% 29.80 in 10.0 mi NW 9.2 mph 16.1 mph 0.00 in   Overcast
12:16 PM 48.2 °F - 42.8 °F 82% 29.78 in 10.0 mi WNW 8.1 mph 18.4 mph N/A   Overcast
12:53 PM 50.0 °F - 42.1 °F 74% 29.80 in 10.0 mi NW 10.4 mph 18.4 mph N/A   Overcast
1:13 PM 51.8 °F - 42.8 °F 71% 29.77 in 10.0 mi NW 11.5 mph 18.4 mph N/A   Overcast
1:53 PM 51.1 °F - 42.1 °F 71% 29.80 in 10.0 mi WNW 8.1 mph 17.3 mph N/A   Overcast
2:53 PM 52.0 °F - 43.0 °F 71% 29.80 in 10.0 mi WNW 10.4 mph - N/A   Overcast
3:53 PM 51.1 °F - 43.0 °F 74% 29.81 in 10.0 mi NW 9.2 mph - N/A   Overcast
4:53 PM 52.0 °F - 44.1 °F 74% 29.82 in 10.0 mi NW 8.1 mph - N/A   Overcast
5:53 PM 51.1 °F - 44.1 °F 77% 29.83 in 10.0 mi NW 9.2 mph - N/A   Overcast
6:53 PM 50.0 °F - 45.0 °F 83% 29.83 in 10.0 mi WNW 9.2 mph - N/A   Overcast
7:53 PM 50.0 °F - 44.1 °F 80% 29.85 in 10.0 mi WNW 8.1 mph - N/A   Overcast
8:53 PM 50.0 °F - 44.1 °F 80% 29.86 in 10.0 mi NW 8.1 mph - N/A   Overcast
9:53 PM 51.1 °F - 43.0 °F 74% 29.86 in 10.0 mi NNW 11.5 mph 18.4 mph N/A   Overcast
10:53 PM 51.1 °F - 42.1 °F 71% 29.86 in 10.0 mi NNW 8.1 mph - N/A   Overcast
11:53 PM 51.1 °F - 42.1 °F 71% 29.84 in 10.0 mi NNW 6.9 mph - N/A   Overcast